Location: Vancouver
(49.2500°N, 123.1330°W)
Time: 05:48:37
(UTC-07:00)

deb Explorer IX - Visible Passes

Search period start: 02 September 2015 00:00
Search period end: 12 September 2015 00:00
Orbit: 540 x 1153 km, 38.8° (Epoch: 31 August)

Date Brightness Start Highest point End Pass type
(mag) Time Alt. Az. Time Alt. Az. Time Alt. Az.
02 Sep ? 05:06:11 12° SSW 05:06:11 12° SSW 05:08:12 10° S visible
09 Sep ? 21:41:58 10° SSW 21:42:46 13° SSW 21:42:46 13° SSW visible
10 Sep ? 21:26:25 10° SSW 21:28:33 16° S 21:28:33 16° S visible
11 Sep ? 21:10:53 10° SSW 21:14:02 18° S 21:14:15 18° SSE visible
